Regional Weather Roundup
Issued by NWS

Home | Current Version | Previous Version | Graphics & Text | Print | Product List | Glossary On
Versions: 1 2 3 4 5 6 7 8 9 10 11 12 13 14 15 16 17 18 19 20 21 22 23 24 25 26 27 28 29 30 31 32 33 34 35 36 37 38 39 40 41 42 43 44 45 46 47 48 49 50
000
ASUS43 KBIS 191410
RWRND

NORTH DAKOTA REGIONAL WEATHER ROUNDUP
NATIONAL WEATHER SERVICE BISMARCK ND
800 AM CST MON FEB 19 2018

NOTE: "FAIR" INDICATES FEW OR NO CLOUDS BELOW 12,000 FEET WITH NO
SIGNIFICANT WEATHER AND/OR OBSTRUCTIONS TO VISIBILITY.


NDZ001>003-009>011-017-191500-
NORTHWEST NORTH DAKOTA

CITY           SKY/WX    TMP DP  RH WIND       PRES   REMARKS
WILLISTON      MOCLDY   -14 -21  71 CALM      30.19R
MINOT          CLOUDY    -9 -16  71 SW6       30.19R WCI -22
MINOT AFB      CLOUDY   -17 -22  74 CALM      30.19R
$$

NDZ018>021-031>035-040>046-191500-
SOUTHWEST NORTH DAKOTA

CITY           SKY/WX    TMP DP  RH WIND       PRES   REMARKS
BISMARCK       CLOUDY     1  -6  72 NE9       30.19R WCI -14
DICKINSON      CLOUDY    -1 -10  65 N5        30.09R WCI -11
GARRISON         N/A     -9 -17  68 N5        30.18R WCI -20
HETTINGER ARPT CLOUDY    -1 -10  65 N9        30.08R WCI -16
$$

NDZ004>008-012>016-024-026-027-054-191500-
NORTHEAST NORTH DAKOTA

CITY           SKY/WX    TMP DP  RH WIND       PRES   REMARKS
GRAND FORKS    CLOUDY    -1  -7  75 N16       30.25R WCI -21
GRND FRKS AFB  FAIR      -2  -9  70 N13       30.25R WCI -20
DEVILS LAKE    FAIR      -9 -14  78 N12       30.22R WCI -28
$$

NDZ022-023-025-028>030-036>039-047>053-191500-
SOUTHEAST NORTH DAKOTA

CITY           SKY/WX    TMP DP  RH WIND       PRES   REMARKS
FARGO          CLOUDY     4  -2  76 N17       30.18R WCI -16
JAMESTOWN      PTCLDY     2  -5  72 N16       30.16R WCI -18
$$




USA.gov is the U.S. government's official web portal to all federal, state and local government web resources and services.